Wetbulb
68.61 70.93 72.16 73.08 73.26 74.10 74.12 74.72 74.99 76.63 76.77 76.20 75.35 75.56 75.36 77.90 78.04 79.80 79.70 80.20 79.06 78.96 80.32 79.06 79.21 79.47 78.40 78.62 78.19 76.94 76.11 73.48 71.80 70.62 67.69 72.36 74.04 74.34 74.36 75.72 76.18 75.07 74.26
67.95 69.85 71.41 72.36 73.02 73.68 74.79 75.55 75.52 76.62 76.90 75.79 76.19 76.29 76.62 77.34 77.84 79.37 80.23 79.77 79.66 79.26 79.62 79.58 79.58 79.59 78.83 79.18 78.72 77.77 74.58 73.45 71.86 69.21 69.09 65.91 69.75 70.48 69.75 71.24 73.41 73.76 74.10
67.59 68.89 70.86 71.75 72.72 73.18 74.42 75.13 76.50 76.63 77.01 76.90 76.20 76.50 77.16 77.13 75.97 76.61 77.52 78.74 79.47 79.14 79.33 79.68 80.44 80.96 79.79 77.03 78.57 77.76 75.96 71.87 72.17 70.79 67.39 65.93 63.81 63.47 69.29 69.54 69.18 71.35 72.15
69.76 70.02 71.18 71.80 72.40 73.04 74.46 75.56 76.41 76.95 76.97 77.69 76.23 76.44 74.30 73.35 75.01 77.20 79.04 78.57 79.13 78.57 78.61 79.77 80.59 80.81 79.21 79.78 78.31 78.22 76.14 74.34 71.15 72.17 69.83 68.48 66.18 61.99 60.34 65.08 66.40 69.35 68.59
70.15 70.08 70.75 71.95 72.99 73.44 73.96 75.11 76.24 77.01 77.23 77.16 76.99 74.77 75.43 74.70 75.06 76.32 77.67 79.31 79.42 79.20 78.89 79.82 80.47 80.88 79.42 80.08 79.68 79.21 76.42 73.92 72.26 71.47 70.00 69.30 68.39 67.44 62.48 58.93 60.87 64.87 67.08
70.56 71.64 72.00 72.49 72.80 73.75 73.95 74.55 75.76 76.81 77.30 76.78 76.48 75.81 75.68 75.93 74.57 75.86 75.68 75.77 76.82 77.49 79.43 79.17 79.89 80.20 79.04 79.05 78.82 80.11 76.97 74.50 73.97 73.36 71.60 68.42 66.35 64.24 62.28 60.00 61.39 61.67 64.98
70.83 71.51 72.26 72.19 72.81 73.36 73.86 74.00 75.22 76.17 76.71 76.22 75.64 75.92 76.36 76.86 76.15 76.34 75.80 76.84 75.09 75.64 77.88 79.21 79.27 78.48 80.30 79.30 79.55 80.20 78.99 76.39 75.23 73.79 71.28 70.26 68.13 65.94 64.53 62.59 60.95 60.75 64.13
70.70 71.13 72.16 72.63 73.08 73.36 74.13 73.99 74.40 75.65 76.34 75.84 75.80 76.45 76.94 75.45 75.06 76.46 75.72 75.70 75.17 75.00 77.67 78.51 78.39 79.68 80.59 79.74 79.56 78.37 78.87 77.42 76.38 73.65 71.72 70.00 69.31 67.17 66.19 63.43 61.66 58.65 62.32
70.17 71.29 72.13 72.42 73.11 73.73 73.98 73.90 74.39 75.61 76.12 75.91 76.02 76.35 76.60 76.78 75.52 76.81 76.98 76.17 77.73 76.19 77.37 77.61 77.82 79.56 80.49 80.07 79.85 77.93 78.63 77.50 75.94 75.23 72.34 70.09 70.27 68.15 67.26 65.65 64.20 60.80 58.40
69.02 69.81 72.21 72.07 72.78 73.68 74.19 74.22 74.42 74.83 75.78 75.87 75.98 75.75 75.99 76.64 77.06 76.96 76.79 76.34 76.80 78.19 78.35 77.73 77.54 78.06 80.14 80.02 80.12 78.51 78.51 77.45 76.57 74.51 72.90 71.65 70.94 68.18 67.56 65.44 64.66 64.85 62.15
69.07 70.05 69.13 69.87 71.58 72.93 73.18 73.00 73.61 74.10 75.09 75.68 75.80 75.77 75.57 75.79 76.72 76.31 76.49 76.56 76.94 78.11 78.38 78.23 77.64 77.26 77.28 79.93 79.88 79.41 78.12 77.50 77.08 75.28 72.88 71.65 70.28 66.22 66.78 64.48 65.09 65.37 64.63
70.61 71.03 70.52 68.47 70.01 68.39 71.08 72.32 73.06 73.61 74.45 75.83 76.39 76.46 76.75 76.85 76.75 76.65 76.62 77.25 77.19 77.71 77.44 78.06 78.11 78.32 77.45 77.30 78.88 79.03 77.89 76.96 76.30 75.71 73.40 71.97 70.32 68.02 67.31 64.79 66.30 65.75 67.03
70.79 71.32 72.04 71.82 71.81 70.26 70.57 71.19 71.97 73.72 74.12 75.37 75.60 76.57 77.09 77.76 78.11 78.32 78.70 78.91 78.89 78.91 78.70 78.35 78.49 78.89 78.40 76.87 77.81 79.12 78.51 78.02 76.58 76.10 74.00 72.66 70.07 68.82 64.96 66.21 65.53 65.92 66.07
70.28 71.29 71.91 72.58 72.90 72.67 73.10 73.99 74.09 75.21 75.67 75.58 75.44 75.74 76.53 77.39 78.03 79.03 79.29 79.52 80.03 79.86 79.71 79.77 79.64 79.70 79.00 77.92 78.35 78.50 78.77 78.42 76.45 76.42 73.92 72.11 69.95 66.65 65.74 66.45 66.55 65.74 64.77
68.86 70.28 71.55 72.22 73.01 72.03 73.36 73.62 74.00 73.59 75.37 74.15 75.03 74.82 76.35 78.19 79.07 79.45 79.68 80.13 80.33 80.32 80.53 80.03 80.01 80.12 79.24 77.84 78.20 77.98 78.02 78.01 75.91 73.74 72.82 71.67 68.20 63.43 63.84 65.05 65.90 65.56 64.43
67.44 68.34 69.63 70.61 70.85 71.87 71.24 72.89 72.83 74.10 73.40 73.41 71.57 75.52 75.29 75.11 76.86 75.52 77.52 78.33 78.96 79.61 80.16 79.44 79.55 79.29 78.97 70.38 67.11 72.72 77.30 77.62 75.99 71.69 71.96 67.72 63.55 62.08 60.95 60.50 60.11 62.94 64.42
66.58 67.62 68.51 68.81 69.32 69.77 70.18 69.62 70.41 70.80 71.56 73.67 73.23 72.64 73.57 75.29 75.98 73.89 73.14 73.62 77.93 76.36 77.65 79.33 79.09 79.24 79.62 65.37 64.42 66.58 74.98 76.96 76.16 73.63 72.20 68.18 65.83 63.95 62.82 59.51 58.96 58.89 59.21
66.65 66.69 67.76 68.61 69.71 70.87 71.27 70.02 70.50 71.13 69.83 69.50 70.34 71.94 71.81 72.28 74.54 76.63 76.45 74.39 75.61 77.64 78.24 78.20 79.19 78.73 71.08 63.84 63.94 64.44 72.93 74.27 75.14 74.74 72.05 70.08 65.43 65.31 64.52 64.47 63.55 63.23 62.57
68.05 66.97 68.25 69.14 69.27 69.02 69.79 70.23 69.34 68.74 69.39 67.95 68.90 69.92 71.24 72.01 73.27 73.57 75.65 77.38 76.42 77.00 77.79 76.80 74.28 75.14 75.67 62.57 61.67 67.79 71.38 71.17 71.15 72.77 71.78 69.12 67.07 59.98 59.57 64.44 63.33 62.40 61.15
67.68 67.75 68.11 68.42 67.96 68.12 68.17 67.34 66.32 66.73 67.12 67.03 67.75 69.64 72.11 72.57 72.83 74.32 74.47 74.77 76.64 76.92 75.98 75.79 75.42 68.65 73.20 60.01 57.68 65.90 70.52 68.33 69.17 69.19 71.07 63.56 65.76 56.81 56.98 65.23 64.13 62.30 61.54
68.07 68.34 67.36 66.11 66.52 66.97 66.39 64.64 64.59 63.77 65.08 66.93 67.79 70.09 71.05 72.31 73.08 74.69 75.39 75.20 76.92 75.65 75.21 75.17 75.36 74.77 73.87 69.05 56.95 58.95 69.12 67.36 67.63 67.63 68.58 69.79 56.83 54.02 53.61 57.58 65.23 63.00 63.23
65.88 66.38 65.94 65.68 66.08 66.35 65.70 64.63 63.84 64.62 64.89 66.52 67.15 68.49 69.60 69.86 71.35 72.92 73.70 74.36 76.22 73.99 74.23 74.35 73.59 73.56 74.20 61.54 55.86 57.68 61.83 64.35 68.76 68.35 69.67 69.40 53.44 51.66 52.11 56.96 53.88 54.86 58.68
65.57 66.03 65.20 64.85 64.88 65.61 65.29 63.65 63.91 64.20 63.87 64.44 66.00 67.91 68.77 69.36 69.51 70.59 71.12 73.00 75.89 76.03 75.51 77.74 77.49 73.07 71.91 72.24 55.84 55.68 56.59 59.67 68.71 69.87 67.45 57.11 50.31 50.11 53.49 52.96 53.30 54.16 63.03
64.19 64.78 63.91 63.11 62.00 62.62 63.88 63.13 62.94 63.77 63.79 62.73 64.40 66.50 67.70 67.18 68.48 68.02 66.39 68.26 68.70 70.88 72.79 72.94 72.40 73.56 74.35 74.52 68.37 64.02 60.91 58.93 64.47 60.15 58.13 56.88 56.92 56.87 60.19 57.19 57.53 63.79 64.89
63.92 63.96 63.65 63.50 62.75 63.49 62.53 61.92 62.29 63.40 63.47 63.69 63.10 64.12 65.50 66.72 66.05 66.41 62.52 62.21 64.57 56.67 62.58 68.40 70.07 71.12 70.92 68.08 54.39 58.04 64.40 65.27 63.60 63.58 61.47 58.65 58.15 59.96 62.26 62.26 62.60 64.33 64.46
62.89 63.27 63.15 63.07 62.26 62.12 61.56 61.69 62.63 63.28 63.26 62.65 62.46 61.60 62.96 64.78 64.58 64.78 65.23 53.57 51.57 49.34 46.44 46.42 51.80 65.59 54.66 48.98 48.61 47.16 48.98 51.51 52.97 62.84 62.45 61.12 61.01 61.41 63.84 63.22 63.27 64.09 63.28
MSLP
1009.51 1010.24 1011.09 1011.75 1012.36 1012.97 1013.70 1014.33 1014.74 1015.09 1015.34 1015.20 1014.88 1014.64 1014.33 1014.37 1014.25 1014.31 1014.78 1014.89 1014.77 1014.75 1014.98 1014.50 1014.51 1014.16 1014.60 1014.94 1014.79 1014.34 1014.08 1013.77 1014.05 1013.18 1012.42 1012.31 1012.73 1012.86 1012.91 1012.93 1014.24 1014.42 1014.81
1008.90 1009.66 1010.47 1011.24 1011.87 1012.50 1013.20 1013.90 1014.37 1014.80 1015.27 1015.19 1015.10 1014.77 1014.60 1014.34 1014.36 1014.38 1014.69 1014.69 1014.77 1014.80 1014.79 1014.94 1014.68 1014.94 1014.23 1014.88 1014.93 1014.94 1014.04 1013.90 1014.49 1013.79 1012.81 1012.25 1012.30 1012.52 1012.83 1013.04 1013.33 1014.07 1014.59
1008.23 1008.97 1009.93 1010.58 1011.27 1011.93 1012.62 1013.23 1013.91 1014.41 1014.83 1015.02 1015.20 1015.30 1015.03 1014.89 1014.52 1014.36 1014.47 1014.53 1014.73 1014.76 1014.86 1014.89 1014.85 1014.86 1014.42 1014.39 1014.84 1014.98 1014.87 1014.21 1014.19 1014.80 1014.12 1013.10 1012.77 1012.83 1012.92 1013.47 1013.73 1014.32 1014.76
1007.54 1008.12 1009.01 1009.88 1010.51 1011.08 1011.97 1012.87 1013.59 1014.18 1014.67 1015.02 1014.99 1015.11 1014.66 1014.21 1013.94 1014.28 1014.33 1014.62 1014.76 1014.68 1014.61 1014.78 1014.74 1014.82 1014.56 1014.90 1014.78 1015.12 1015.16 1015.14 1014.43 1014.23 1014.75 1015.01 1014.66 1013.60 1012.68 1012.91 1014.04 1014.47 1014.84
1006.59 1007.19 1007.89 1008.73 1009.54 1010.34 1011.14 1012.11 1013.12 1013.67 1014.12 1014.66 1015.04 1015.04 1015.03 1014.24 1014.26 1014.31 1014.71 1014.76 1014.68 1014.55 1014.34 1014.48 1014.54 1014.83 1014.34 1014.68 1014.97 1015.21 1015.51 1015.04 1015.08 1014.81 1014.79 1014.61 1014.21 1014.54 1013.97 1013.08 1013.15 1013.57 1014.66
1005.76 1006.52 1007.21 1007.95 1008.86 1009.75 1010.62 1011.32 1012.36 1013.25 1013.78 1014.29 1014.70 1014.97 1014.76 1014.70 1014.38 1014.44 1014.28 1014.10 1014.05 1014.01 1014.13 1014.11 1014.24 1014.32 1014.47 1014.56 1014.62 1015.10 1015.33 1015.46 1015.49 1015.26 1015.03 1014.58 1014.34 1014.07 1013.95 1013.40 1013.29 1013.78 1014.53
1005.31 1005.90 1006.85 1007.60 1008.45 1009.22 1009.98 1010.70 1011.74 1012.66 1013.23 1013.74 1014.08 1014.54 1014.79 1014.87 1014.75 1014.70 1014.17 1013.98 1013.77 1013.70 1013.86 1014.35 1014.26 1013.95 1014.01 1014.20 1014.47 1014.77 1015.02 1015.10 1015.11 1015.38 1014.87 1014.77 1014.67 1014.66 1014.28 1013.84 1013.46 1013.48 1014.25
1004.88 1005.51 1006.37 1007.02 1007.87 1008.59 1009.40 1010.13 1010.92 1011.99 1012.65 1013.19 1013.67 1014.08 1014.43 1014.42 1014.32 1014.31 1014.18 1014.04 1013.82 1013.78 1013.97 1014.20 1013.96 1013.77 1013.72 1013.92 1014.22 1014.36 1014.69 1015.07 1014.84 1015.09 1015.33 1014.87 1014.79 1014.82 1014.61 1014.22 1014.00 1013.42 1013.13
1005.42 1005.37 1006.21 1006.92 1007.56 1008.28 1009.02 1009.55 1010.32 1011.38 1012.00 1012.66 1013.30 1013.70 1013.95 1014.14 1013.68 1014.00 1014.18 1014.08 1014.08 1013.83 1013.93 1014.01 1013.85 1013.69 1013.73 1013.83 1014.00 1013.99 1014.62 1014.84 1014.89 1014.85 1015.19 1015.12 1014.84 1014.85 1014.66 1014.44 1014.25 1014.08 1013.35
1007.22 1006.46 1006.40 1007.02 1007.60 1008.00 1008.82 1009.55 1010.09 1010.89 1011.50 1012.11 1012.64 1013.05 1013.31 1013.61 1013.84 1014.03 1014.00 1013.88 1013.80 1013.86 1013.79 1013.80 1013.72 1013.54 1013.63 1013.87 1013.85 1013.76 1014.10 1014.54 1014.48 1014.48 1014.80 1014.98 1014.84 1014.92 1014.67 1014.45 1014.24 1014.27 1014.00
1007.74 1007.72 1007.63 1008.04 1008.63 1008.52 1008.94 1009.25 1009.79 1010.38 1011.01 1011.40 1011.84 1012.39 1012.79 1013.11 1013.45 1013.58 1013.61 1013.57 1013.56 1013.52 1013.45 1013.36 1013.36 1013.41 1013.38 1013.42 1013.56 1013.61 1013.98 1014.09 1014.29 1014.54 1014.59 1014.75 1015.05 1015.01 1014.51 1014.51 1014.33 1014.21 1014.20
1007.66 1007.99 1008.18 1007.81 1008.43 1010.27 1009.65 1009.54 1009.98 1010.27 1010.69 1011.05 1011.61 1011.95 1012.40 1012.74 1012.90 1013.20 1013.26 1013.29 1013.19 1013.18 1013.13 1012.99 1012.83 1012.78 1012.93 1013.04 1013.14 1013.33 1013.28 1013.68 1013.97 1014.13 1014.36 1014.62 1014.75 1015.29 1015.12 1014.45 1015.02 1014.64 1014.53
1008.28 1008.47 1008.30 1008.12 1009.08 1010.04 1009.53 1009.92 1010.58 1010.56 1010.72 1010.87 1011.29 1011.86 1012.23 1012.47 1012.60 1012.72 1012.86 1012.86 1012.75 1012.70 1012.57 1012.54 1012.50 1012.34 1012.50 1012.56 1012.77 1013.02 1013.05 1013.23 1013.56 1013.55 1014.22 1014.46 1014.93 1015.24 1014.97 1015.03 1014.63 1014.44 1014.47
1008.77 1008.80 1008.96 1009.28 1009.76 1009.71 1010.04 1010.23 1011.16 1011.17 1010.94 1011.11 1011.33 1011.70 1011.77 1011.89 1012.05 1012.23 1012.28 1012.27 1012.22 1012.23 1012.20 1012.17 1012.08 1012.07 1012.08 1012.14 1012.23 1012.40 1012.58 1012.85 1013.34 1013.34 1013.89 1014.42 1014.69 1015.21 1015.30 1015.22 1015.22 1015.01 1014.71
1009.37 1009.41 1009.57 1010.01 1010.34 1010.62 1010.75 1011.99 1012.27 1012.02 1011.38 1011.73 1011.54 1011.76 1012.16 1012.12 1011.98 1011.78 1011.74 1011.78 1011.69 1011.56 1011.58 1011.67 1011.70 1011.76 1011.86 1011.71 1011.96 1012.10 1012.35 1012.57 1013.17 1013.47 1013.66 1014.24 1014.71 1015.55 1015.60 1015.18 1015.54 1015.43 1014.80
1009.76 1010.08 1010.35 1010.75 1011.31 1011.73 1011.41 1012.34 1012.82 1012.28 1012.18 1012.33 1011.99 1011.22 1012.09 1012.75 1012.82 1012.79 1011.62 1011.99 1011.50 1011.01 1010.93 1010.72 1010.96 1011.12 1011.08 1011.02 1011.45 1011.85 1012.26 1012.53 1012.96 1013.53 1013.57 1014.52 1015.36 1015.94 1016.25 1016.10 1016.51 1016.28 1015.52
1009.99 1010.39 1010.81 1011.60 1012.03 1012.47 1013.15 1013.00 1012.77 1012.78 1011.86 1012.20 1012.25 1012.09 1011.64 1012.76 1012.72 1012.80 1012.09 1011.78 1011.53 1011.09 1010.50 1010.37 1010.34 1010.58 1010.94 1011.52 1011.51 1011.71 1012.25 1012.59 1012.91 1013.55 1013.94 1014.16 1014.86 1016.03 1016.40 1016.65 1016.78 1017.00 1016.52
1010.23 1010.83 1011.45 1011.69 1012.02 1012.58 1012.98 1013.76 1013.35 1012.66 1012.80 1012.59 1011.87 1012.53 1012.22 1012.89 1013.01 1012.31 1012.14 1011.90 1011.28 1010.45 1010.39 1010.26 1010.24 1010.48 1011.76 1011.85 1011.57 1011.67 1012.48 1011.77 1013.06 1013.69 1014.21 1013.89 1014.97 1015.58 1016.08 1016.15 1016.62 1016.60 1016.88
1010.62 1011.21 1011.61 1011.87 1012.38 1012.58 1012.63 1012.71 1012.80 1012.69 1013.14 1013.08 1012.71 1012.96 1013.53 1012.86 1013.29 1012.81 1011.93 1011.32 1010.97 1010.67 1010.33 1010.70 1010.88 1011.11 1011.18 1012.30 1012.07 1011.71 1011.71 1011.10 1013.00 1014.15 1014.50 1014.33 1014.76 1015.63 1016.21 1016.32 1016.56 1016.77 1017.15
1010.61 1011.04 1011.49 1011.94 1012.51 1012.86 1012.87 1012.77 1012.45 1012.40 1012.76 1013.44 1013.72 1012.99 1013.13 1013.55 1012.80 1012.07 1011.73 1011.52 1011.12 1010.40 1010.08 1010.60 1010.85 1011.43 1010.81 1011.49 1011.51 1011.10 1011.05 1011.05 1012.26 1014.28 1014.93 1015.69 1014.80 1015.61 1016.37 1016.52 1016.61 1016.62 1016.91
1010.59 1011.11 1011.75 1012.38 1012.87 1013.08 1013.11 1012.76 1013.06 1013.37 1013.83 1013.80 1013.77 1013.24 1013.29 1013.27 1012.46 1011.75 1011.23 1010.90 1010.29 1010.17 1009.95 1010.01 1010.37 1010.69 1010.15 1010.71 1010.93 1010.91 1010.58 1009.64 1011.12 1012.63 1013.76 1015.29 1015.47 1015.78 1016.25 1016.61 1016.51 1016.50 1016.92
1010.96 1011.13 1011.82 1012.50 1013.25 1013.37 1013.57 1013.75 1014.01 1014.45 1014.41 1013.91 1013.96 1013.62 1013.35 1013.08 1012.28 1011.45 1011.05 1010.54 1009.83 1010.05 1009.91 1010.01 1010.05 1009.50 1009.77 1010.91 1011.10 1010.78 1010.40 1010.91 1011.37 1012.01 1012.76 1014.20 1015.58 1015.74 1016.18 1016.61 1016.76 1017.12 1017.02
1011.23 1011.49 1012.40 1013.08 1013.55 1013.96 1014.22 1014.58 1015.16 1015.11 1014.86 1014.46 1014.00 1013.55 1013.05 1012.58 1012.27 1011.63 1011.41 1010.89 1009.88 1009.90 1009.46 1009.14 1009.19 1008.97 1009.17 1010.18 1011.00 1011.86 1010.90 1010.61 1011.05 1011.54 1012.58 1013.46 1015.15 1015.81 1016.28 1016.67 1016.93 1016.93 1016.19
1012.00 1012.36 1012.94 1013.67 1014.17 1014.63 1014.72 1015.02 1015.25 1015.14 1014.75 1014.45 1014.10 1013.54 1013.07 1012.68 1012.33 1011.99 1011.95 1011.75 1011.28 1010.63 1009.80 1009.20 1009.63 1009.08 1009.22 1009.46 1010.39 1010.95 1011.44 1011.44 1011.63 1012.10 1012.83 1013.65 1015.26 1015.86 1015.55 1016.50 1016.95 1015.99 1015.48
1012.77 1012.67 1012.94 1013.68 1014.15 1014.53 1015.00 1015.18 1015.19 1014.93 1014.61 1014.27 1014.02 1013.40 1012.58 1012.23 1012.25 1012.28 1012.84 1012.71 1012.37 1013.03 1012.41 1011.35 1010.69 1010.25 1010.17 1010.69 1011.12 1011.09 1011.32 1011.47 1011.89 1012.44 1013.17 1014.12 1015.06 1015.30 1015.04 1015.48 1015.80 1015.36 1015.36
1013.35 1013.38 1013.47 1013.89 1014.20 1014.64 1014.97 1015.14 1015.06 1014.72 1014.37 1013.75 1013.33 1013.32 1012.99 1012.48 1012.68 1012.57 1012.59 1012.79 1012.84 1012.93 1012.79 1012.82 1012.67 1011.06 1011.07 1011.39 1010.97 1011.20 1011.29 1011.46 1011.81 1012.36 1013.01 1013.27 1013.63 1013.74 1013.70 1014.21 1014.63 1014.65 1014.91
Wind_Speed
14 15 14 13 11 11 12 12 11 8 6 7 6 5 5 2 2 1 2 2 2 1 1 5 4 5 6 6 5 5 3 5 6 6 5 3 3 4 5 4 4 5 6
14 13 14 13 14 14 13 12 12 11 9 6 5 4 3 3 3 2 1 3 0 1 3 2 3 5 3 4 4 5 7 4 6 6 4 4 4 2 3 6 3 4 3
16 15 14 15 15 15 16 15 14 12 11 9 5 5 5 5 5 4 5 4 2 3 4 4 4 2 5 6 5 6 7 6 4 5 5 4 5 7 3 3 6 6 2
15 15 16 15 15 16 15 15 14 12 11 10 7 7 8 7 3 3 0 4 3 4 4 4 3 4 6 4 5 6 6 7 6 3 4 4 4 5 4 3 4 2 3
18 17 17 16 17 14 14 14 14 14 12 11 9 8 10 7 6 5 3 3 3 4 3 3 4 4 7 5 4 4 5 4 6 6 6 4 2 1 6 6 5 2 5
17 16 16 14 12 12 13 14 15 14 14 12 11 11 10 9 7 7 6 5 4 3 3 3 4 4 4 3 4 3 4 4 5 5 4 5 5 6 5 6 6 4 6
17 16 15 14 13 14 16 14 15 14 14 14 12 13 12 11 10 10 9 6 6 5 2 4 5 6 4 5 1 2 2 2 3 4 5 3 4 4 4 5 6 4 3
14 16 16 16 15 16 16 16 16 14 14 13 12 11 11 9 9 9 9 7 6 5 2 5 7 7 6 5 3 5 2 2 2 3 4 5 4 3 4 5 6 7 1
5 12 14 14 12 13 15 17 15 13 14 13 11 11 11 12 10 10 7 8 8 7 8 6 7 6 6 6 4 6 3 3 3 1 1 4 3 3 4 4 4 5 6
4 5 8 8 10 11 11 12 13 13 12 12 12 11 11 11 11 9 10 10 9 8 8 7 8 8 7 7 6 5 4 4 4 3 1 3 2 2 3 5 4 3 6
4 1 5 9 8 6 7 7 10 12 12 12 11 11 10 10 10 11 11 11 11 10 10 10 9 9 9 8 8 8 6 6 5 5 3 3 1 2 5 5 3 3 4
7 6 5 12 10 10 5 4 6 9 10 9 9 9 9 8 9 10 11 11 11 11 11 11 11 11 10 10 10 10 7 7 6 7 5 4 2 1 1 4 4 5 1
7 7 8 12 6 7 7 5 4 7 6 7 8 8 8 8 9 10 10 11 12 12 12 12 13 12 10 10 10 10 10 9 7 7 5 3 3 2 3 4 3 2 2
7 8 8 9 9 9 8 7 6 4 3 4 5 7 8 9 10 10 11 12 12 12 13 12 14 13 11 11 10 10 9 9 7 6 5 5 4 4 3 2 1 2 3
7 8 8 7 8 11 12 10 6 4 8 6 7 5 8 9 9 8 9 11 11 11 11 12 13 13 11 10 11 10 9 7 7 6 6 6 7 7 5 3 1 3 3
8 10 8 10 7 10 9 10 7 8 8 6 5 7 3 5 8 8 8 11 11 9 11 11 10 13 10 8 8 9 7 7 7 7 7 9 11 7 7 10 10 8 3
7 7 6 7 6 8 3 5 6 3 9 6 6 5 7 9 8 8 9 10 13 9 11 10 10 10 11 7 3 5 4 6 6 7 7 9 9 9 8 9 7 6 7
7 7 7 5 6 7 7 7 3 8 7 6 7 6 4 7 11 12 12 9 12 13 9 9 8 4 6 4 5 9 5 4 7 7 8 8 12 10 9 8 6 8 8
11 9 8 7 7 8 5 6 10 11 10 10 7 7 8 7 10 11 11 13 9 10 7 4 3 3 7 6 8 7 8 13 1 5 6 9 11 12 7 8 8 8 8
12 11 10 10 10 9 9 10 12 13 13 10 9 4 7 9 9 10 9 9 13 8 7 6 4 6 10 12 14 10 6 10 7 4 2 8 10 14 10 8 8 8 8
13 13 12 11 10 10 10 14 13 13 10 10 9 9 7 9 10 9 10 7 9 6 6 8 8 7 10 8 8 6 5 9 8 8 7 8 12 15 11 7 7 7 9
14 13 12 12 10 10 10 11 11 8 8 8 8 9 7 7 8 11 11 10 5 5 5 6 8 2 2 8 7 6 6 10 8 9 7 9 17 15 11 8 12 9 10
10 11 10 11 10 9 8 7 6 6 7 8 7 8 8 7 7 9 10 9 6 6 9 5 4 3 4 8 11 7 10 13 8 4 8 17 18 14 8 11 13 12 7
10 10 9 11 8 7 6 6 5 5 5 6 7 6 7 6 7 7 8 9 9 9 8 4 6 5 6 5 3 5 4 7 6 10 10 15 15 13 10 12 10 9 6
6 8 9 10 8 7 7 5 5 6 6 5 5 7 7 7 8 5 4 5 5 4 7 8 7 6 6 2 3 2 4 6 7 9 9 11 12 12 11 11 11 9 7
7 6 7 9 9 8 8 7 7 8 8 8 6 5 7 6 6 7 7 5 4 5 6 7 6 7 2 4 6 4 3 12 16 7 9 11 12 13 12 12 11 10 8
Wind_Direction
176 172 183 183 190 189 191 197 195 200 212 201 214 224 235 209 217 219 171 178 62 144 76 299 1 323 40 21 2 330 53 14 358 284 327 176 226 258 261 211 256 263 230
184 182 185 195 196 195 201 200 205 196 205 216 235 279 281 247 313 298 226 235 215 271 232 339 321 12 35 52 9 13 339 54 29 344 297 1 149 154 8 339 332 234 241
194 192 195 201 200 206 201 204 204 201 205 221 217 245 256 250 240 216 211 172 251 289 279 285 317 341 306 38 9 19 19 1 45 21 341 337 4 322 127 51 9 358 36
207 201 199 204 210 208 205 207 205 207 204 204 226 243 263 260 244 267 64 268 290 290 260 273 295 299 340 17 42 40 354 347 11 3 58 359 348 347 325 127 92 86 19
210 208 209 206 212 208 203 201 200 201 210 198 233 227 235 246 243 241 237 258 262 283 246 263 285 281 294 41 13 18 27 16 347 3 357 350 300 174 323 327 352 148 73
211 210 215 209 210 203 199 195 193 202 198 197 201 219 244 246 266 240 264 250 269 256 203 250 265 279 292 305 349 19 74 27 356 345 333 339 340 340 329 322 322 340 77
211 203 207 207 203 200 197 196 188 198 198 198 198 206 220 233 245 250 244 277 268 256 213 268 270 288 243 240 283 261 138 119 347 332 332 332 342 333 323 305 335 309 103
208 203 209 201 200 200 194 195 186 200 199 202 206 208 216 225 229 235 266 257 265 269 289 271 279 289 255 225 214 245 281 143 239 300 350 322 349 332 327 323 328 322 213
268 197 192 206 206 200 195 200 192 196 201 202 204 211 215 228 232 244 249 248 253 269 233 259 289 290 253 238 248 254 238 227 239 316 317 301 358 321 319 307 325 329 321
10 311 178 187 205 199 201 208 199 200 203 207 207 212 215 220 232 237 245 260 264 260 270 270 273 280 265 259 249 257 214 223 247 271 227 287 358 313 309 319 318 305 305
102 40 183 109 347 184 185 214 214 209 208 210 209 217 220 223 226 237 241 244 246 242 245 249 260 265 267 259 254 253 269 239 247 256 240 255 231 31 304 320 329 310 291
69 110 141 160 128 244 140 176 256 233 223 215 219 219 219 230 235 244 253 255 255 253 251 252 245 249 250 253 250 253 256 249 227 243 232 246 206 253 274 302 345 26 333
99 112 105 94 143 151 140 145 233 247 241 231 215 226 233 231 237 246 252 256 257 256 255 251 253 249 245 240 241 244 251 246 229 232 230 236 197 215 357 340 326 99 82
107 100 108 122 128 107 103 98 115 100 109 184 225 246 252 252 251 254 257 259 260 262 265 260 260 255 245 238 235 231 235 242 227 219 197 214 184 174 188 46 201 103 149
111 103 108 104 110 110 105 104 104 51 95 105 93 38 333 309 288 270 276 275 271 271 264 265 265 259 254 243 234 242 242 237 225 186 184 187 97 61 50 302 338 187 189
123 107 97 84 80 72 86 97 81 91 81 72 28 46 53 328 311 309 290 295 277 257 257 243 244 256 251 242 200 233 249 241 223 197 181 124 124 116 75 66 32 17 159
161 169 138 87 82 81 82 111 104 176 88 58 32 21 35 317 288 269 303 291 272 283 279 261 243 247 260 29 192 205 224 303 231 214 186 167 128 149 131 106 111 76 41
146 140 143 137 123 115 114 139 106 69 96 82 58 342 21 302 296 289 268 266 277 286 275 267 257 230 95 314 175 150 148 62 273 245 206 180 152 156 158 145 143 131 131
141 134 135 119 95 76 68 74 70 67 44 35 49 3 305 307 293 284 295 291 270 276 276 186 186 215 174 222 206 155 154 100 38 303 234 172 168 145 165 153 150 132 124
151 141 129 106 92 78 67 56 45 42 28 11 349 7 323 293 291 288 281 275 271 266 248 225 231 265 258 193 208 176 147 110 99 156 273 280 176 157 191 163 163 151 150
136 125 110 93 77 70 63 63 46 35 4 346 338 335 335 317 313 310 308 297 265 280 250 238 237 264 251 193 175 217 163 135 180 208 174 203 159 167 187 219 185 151 153
145 131 115 101 84 68 59 49 43 11 357 351 342 323 343 331 328 336 331 323 280 260 251 224 233 231 243 164 209 188 122 151 169 183 165 177 167 170 180 211 115 141 174
129 119 113 106 93 76 58 54 22 351 341 332 331 333 327 343 353 348 340 325 329 278 276 272 251 268 171 137 127 218 188 186 176 161 181 146 159 164 151 140 156 181 205
128 124 126 117 110 97 81 63 15 347 335 341 326 321 317 341 354 2 356 341 343 333 321 320 300 261 281 320 84 101 153 156 117 103 119 143 163 195 153 153 181 216 181
138 132 133 125 117 99 89 65 37 3 355 359 350 335 329 4 350 9 340 342 4 360 327 333 321 298 286 341 38 45 147 148 139 121 131 145 170 187 178 185 196 212 169
147 143 128 120 106 98 82 56 29 17 2 354 8 358 326 343 345 341 339 202 230 298 307 312 322 329 288 310 347 1 220 152 142 146 165 176 180 191 190 191 192 204 177